GFSSW_prec_cloud_363.txt.gz
Cloud_Cover
100 100 30 100 100 100 51 30 3 10 5 24 0 0 0 2 5 5 5 93 0 5 5 90 97 77 10 5 4 14 35 94 73 91 17 5 9 4 0 5 5 0 4 4 4
100 100 100 100 100 100 68 21 0 1 10 25 0 0 0 10 5 5 68 63 0 5 14 100 92 39 5 5 3 96 39 42 12 30 6 5 64 5 64 5 9 100 4 5 5
100 54 100 100 100 100 100 4 4 12 8 0 0 2 5 13 5 4 69 12 0 4 5 5 59 6 5 10 13 99 100 3 6 36 27 48 32 5 62 98 72 94 94 0 12
99 80 34 100 100 100 82 5 9 4 6 0 5 5 5 5 47 5 99 42 0 5 5 5 5 31 70 99 11 98 3 40 5 80 85 33 41 76 56 34 25 46 100 12 0
100 88 100 100 100 98 40 13 23 15 0 0 3 5 5 5 4 86 100 8 5 5 29 5 12 8 56 96 11 86 33 11 7 94 27 21 20 96 32 3 1 2 16 89 27
100 100 100 100 100 34 37 31 23 0 5 4 5 36 5 4 7 100 89 16 13 60 74 5 6 4 5 91 62 5 50 50 5 78 54 72 89 8 13 0 0 2 3 72 64
100 100 100 100 97 42 38 30 9 5 5 5 5 5 5 2 21 100 100 96 89 55 5 9 5 7 21 100 10 3 98 89 16 88 97 88 100 42 0 0 5 2 5 11 0
100 100 100 100 80 41 28 7 2 5 5 5 5 5 5 5 59 100 98 96 69 7 5 19 9 73 69 35 5 27 90 100 40 3 98 89 96 6 0 9 10 5 4 4 0
100 100 100 90 27 3 0 0 5 5 5 5 5 5 4 90 100 100 100 14 5 5 5 5 47 64 14 90 43 100 44 96 58 0 22 43 93 46 0 0 5 5 1 0 3
100 100 100 28 2 0 0 4 5 18 16 5 8 5 18 87 100 100 100 5 5 5 20 28 15 71 49 39 98 100 100 89 67 39 1 92 100 1 0 0 0 0 0 3 5
100 96 69 2 0 0 31 5 5 5 5 12 5 5 10 100 100 100 100 72 100 85 97 96 100 100 90 34 1 57 90 65 5 4 40 32 5 23 0 0 0 0 0 0 0
100 100 45 0 0 0 13 5 74 32 5 5 5 5 91 100 100 100 79 100 53 100 57 97 98 28 4 4 1 6 91 58 41 6 98 7 2 4 0 0 0 0 0 0 0
98 37 0 0 1 34 21 88 37 5 5 5 4 4 99 100 100 100 29 3 17 6 100 100 89 0 1 3 57 77 37 8 65 37 5 5 3 0 0 0 0 0 0 0 0
45 1 0 0 49 5 95 74 6 5 5 5 5 17 100 100 100 81 37 5 5 50 53 100 11 1 14 5 77 100 3 5 70 56 85 7 100 7 11 0 0 0 0 0 0
86 0 0 82 4 36 92 4 99 57 72 64 13 100 100 100 100 66 100 94 31 95 70 100 94 95 63 60 15 84 5 4 5 53 99 7 97 100 100 5 3 3 0 0 0
100 56 2 6 5 68 65 100 100 100 100 98 100 100 100 100 100 100 100 96 29 15 36 97 88 25 86 5 4 24 6 40 32 90 100 100 68 75 100 100 86 55 5 1 3
97 8 18 1 6 98 100 96 100 99 68 95 100 100 100 100 100 100 100 100 100 97 100 100 100 38 5 18 16 14 100 68 54 90 93 23 2 94 83 99 47 99 74 50 10
100 63 0 5 13 100 100 62 100 99 36 93 100 100 100 100 100 100 100 74 40 70 100 100 94 5 28 41 77 86 76 100 43 70 100 0 70 72 7 33 0 0 0 5 25
8 0 0 5 9 100 100 100 98 100 100 100 100 100 100 100 100 100 100 100 97 19 36 96 90 5 0 5 1 10 24 88 0 58 16 100 78 2 0 0 2 1 5 5 5
4 1 0 4 9 89 100 32 99 100 100 100 100 72 12 78 100 92 90 56 83 17 90 95 97 10 2 0 3 0 6 0 87 86 45 100 100 75 74 5 0 0 5 6 20
5 0 0 5 5 32 75 77 99 100 100 98 35 64 99 75 9 99 100 44 8 9 5 90 22 68 0 4 6 1 11 58 2 2 62 85 100 67 1 0 0 0 0 1 2
5 5 0 0 4 18 10 86 73 92 100 100 89 61 72 98 81 100 100 48 5 3 2 4 60 100 99 1 0 0 0 0 0 5 59 3 0 8 0 0 0 0 0 0 0
5 58 3 5 5 5 50 100 100 100 75 43 8 6 40 96 82 74 97 8 0 1 69 69 4 58 94 60 5 4 0 0 0 0 5 5 70 30 5 4 0 0 0 0 0
36 21 5 4 5 31 74 62 61 45 94 98 100 18 5 6 22 78 34 4 0 0 0 0 4 58 65 55 20 2 0 2 1 1 5 4 5 5 5 4 2 0 0 0 0
65 90 9 5 4 5 66 94 50 45 15 66 70 8 5 65 45 5 27 1 5 3 0 0 4 5 5 5 0 0 0 0 0 0 0 1 3 5 0 0 0 0 0 0 0
97 96 77 13 8 14 5 24 82 57 5 5 5 6 70 100 64 100 42 5 4 0 0 0 0 0 0 0 0 4 0 2 0 0 0 0 24 0 0 0 0 0 0 1 0
98 85 100 52 66 37 51 58 100 71 87 12 5 42 82 67 3 4 5 5 5 0 1 0 1 4 1 2 1 0 1 0 0 0 0 0 0 0 0 0 0 0 0 1 0

GFSSW_prec_cloud_366.txt.gz
Cloud_Cover
100 100 100 100 100 66 15 32 30 24 0 0 0 0 0 0 0 1 5 0 1 4 100 98 4 5 5 56 100 100 54 100 78 57 0 64 7 0 0 0 3 0 2 0 0
100 100 82 55 97 23 25 29 24 21 0 0 0 0 0 2 0 5 51 0 5 2 100 98 6 2 53 100 100 100 100 71 12 80 5 100 77 48 29 56 34 3 3 4 4
100 94 21 86 64 48 30 30 15 11 0 0 0 0 0 10 0 0 86 76 2 40 41 94 19 78 89 94 100 35 5 49 96 7 100 12 56 100 62 100 72 72 3 7 45
100 100 77 100 86 32 36 25 22 7 0 0 0 0 0 0 10 3 55 40 0 5 5 5 21 30 100 33 98 7 12 100 96 88 40 97 41 100 8 67 0 24 95 26 0
100 100 96 100 32 36 40 20 15 0 0 0 0 0 0 2 2 1 62 2 0 5 24 19 34 74 100 15 85 100 100 16 51 100 95 100 89 96 17 4 0 0 4 82 2
100 100 100 84 35 36 33 3 0 1 0 0 0 38 3 0 4 0 31 54 5 5 5 5 5 4 5 30 100 12 90 95 27 100 100 100 100 76 52 34 0 1 5 52 11
100 95 69 60 31 29 13 0 0 0 0 0 0 1 0 3 3 5 82 12 5 1 31 66 5 3 16 52 7 76 100 100 100 99 100 100 100 87 85 61 0 0 0 0 0
100 66 19 27 25 7 0 0 0 0 0 0 0 4 0 5 5 54 12 5 5 42 5 5 5 5 13 8 12 59 100 100 48 1 4 9 100 100 68 58 9 0 0 3 0
100 67 1 0 0 0 0 0 0 0 5 0 1 2 0 5 22 100 92 5 5 5 5 0 5 57 29 81 90 71 94 74 88 68 100 28 100 3 26 62 28 1 0 0 0
99 0 0 0 0 0 0 0 1 5 5 0 3 2 4 9 100 91 95 47 5 5 26 71 72 100 84 33 80 99 43 48 86 17 92 99 19 12 0 21 12 6 0 0 0
90 0 0 0 0 0 5 0 5 5 2 0 5 5 5 92 100 68 72 25 5 97 100 100 100 100 100 84 49 100 100 70 5 22 67 8 43 2 0 1 0 0 0 0 0
100 0 0 0 0 0 10 1 5 0 2 4 5 1 16 100 100 100 5 19 93 100 100 100 100 100 100 16 84 98 40 54 19 13 93 39 5 95 1 1 1 3 0 0 0
82 0 0 0 2 36 0 72 5 2 5 5 5 0 71 100 100 100 74 5 34 100 100 100 100 100 100 96 9 73 100 100 51 2 54 19 23 4 1 2 0 0 0 0 0
94 0 0 0 16 0 5 49 5 5 15 22 5 1 91 100 100 100 100 45 100 100 100 100 100 100 40 94 100 36 53 24 90 63 21 76 75 10 43 80 11 3 4 0 0
100 17 0 78 0 0 25 62 46 5 51 9 5 5 100 100 100 100 63 96 4 96 98 100 100 97 100 94 4 9 5 32 67 98 100 96 100 9 15 24 18 100 71 2 0
100 85 5 0 2 60 100 100 41 18 47 79 5 6 81 100 100 100 100 53 23 85 39 39 79 76 98 56 5 2 76 84 97 62 12 3 7 11 0 2 54 37 5 5 6
100 34 27 0 0 5 100 34 29 5 96 89 10 79 82 100 100 100 100 92 13 41 3 98 90 100 100 100 55 63 65 65 100 92 94 40 34 5 5 0 64 3 98 68 98
100 34 0 0 4 96 67 2 88 50 86 99 100 45 100 100 100 100 100 34 99 92 100 100 100 100 100 13 4 20 95 96 40 99 58 6 92 76 4 0 3 6 18 33 54
33 0 0 0 14 99 63 44 99 99 100 96 82 100 97 100 100 100 100 100 100 59 100 100 100 94 63 4 0 7 71 13 2 86 100 96 96 19 5 92 32 98 1 4 100
0 0 0 0 76 100 72 61 37 100 72 92 100 100 100 100 100 100 100 100 97 100 73 97 46 72 48 4 1 0 1 2 5 44 64 100 83 27 38 97 6 0 0 0 0
4 0 0 3 77 100 100 83 93 92 81 88 79 46 100 100 100 100 100 100 100 100 58 97 100 88 48 8 26 5 2 2 39 3 28 89 99 98 42 4 0 0 0 0 0
5 0 0 4 86 100 100 5 58 75 100 88 48 100 100 100 100 100 100 100 100 100 100 73 100 31 70 16 0 0 0 0 0 0 61 24 35 98 15 5 2 0 0 0 0
34 5 0 2 50 84 83 27 100 9 100 70 24 75 78 100 100 100 100 100 100 42 20 13 3 98 81 88 24 58 3 0 1 2 34 29 88 100 100 96 40 0 0 0 0
93 5 1 0 14 57 85 100 98 74 92 100 53 25 59 97 100 100 95 96 18 0 0 0 0 6 100 86 100 64 40 4 0 8 22 26 34 52 34 38 0 0 0 0 0
100 46 69 4 1 71 100 100 98 99 71 97 97 23 2 3 92 10 60 2 0 0 0 0 0 0 1 8 58 28 2 1 81 55 5 2 6 0 0 0 0 0 0 0 0
34 26 34 53 5 19 9 99 100 100 100 100 92 42 5 6 44 100 10 8 5 0 0 4 0 0 0 1 5 5 1 2 5 5 24 93 77 0 0 0 0 0 0 0 0
0 100 100 92 6 22 25 41 94 100 98 99 94 45 74 92 23 100 100 100 95 85 90 10 4 0 1 0 0 2 8 5 3 4 1 3 0 0 0 0 0 0 0 0 0

GFSSW_prec_cloud_369.txt.gz
Cloud_Cover
100 100 30 10 28 94 44 7 7 2 12 9 0 0 0 0 5 5 0 2 7 100 5 5 18 100 100 100 100 100 99 89 100 5 1 1 3 2 0 0 0 2 4 1 1
100 99 42 26 70 100 85 4 0 0 1 0 0 0 0 0 5 5 0 3 13 27 25 19 100 100 100 100 100 98 65 100 76 32 38 9 2 85 54 5 0 0 1 5 24
100 76 26 11 97 100 84 0 0 0 0 0 0 0 0 0 1 5 0 5 2 5 5 100 100 100 100 100 100 100 4 89 100 100 100 100 23 29 32 6 0 4 1 1 0
100 18 25 29 83 93 61 27 7 0 2 0 0 0 0 0 0 5 0 1 3 5 5 100 100 100 100 100 100 91 100 26 100 100 26 100 100 84 0 0 0 0 0 1 0
98 7 27 26 41 68 30 29 14 0 0 0 0 0 0 0 0 5 4 2 0 5 5 38 100 100 100 100 100 100 73 97 100 100 58 42 100 100 12 0 0 0 1 5 0
96 63 13 14 31 23 5 2 0 0 0 0 0 0 0 0 0 0 5 2 0 2 34 6 5 52 93 99 100 42 100 100 100 88 31 91 100 99 32 0 0 0 0 0 0
70 89 0 2 16 19 3 0 0 0 0 0 0 0 0 0 0 5 22 5 0 5 100 100 11 5 6 54 53 100 94 100 100 4 74 5 26 6 0 0 0 0 0 0 0
17 34 0 0 0 0 0 0 0 0 0 0 0 0 0 0 4 5 5 5 5 5 26 2 5 3 100 100 100 100 39 89 100 50 0 25 62 0 0 0 0 0 0 0 0
95 0 0 0 0 0 0 0 0 0 0 0 0 0 0 5 8 5 5 71 54 24 45 5 13 34 100 100 100 100 74 3 0 4 2 1 0 0 0 0 0 0 0 0 0
98 1 0 0 0 0 0 0 0 0 0 0 0 0 4 84 76 21 57 26 10 36 100 97 87 100 100 100 100 100 100 88 9 4 1 2 0 0 0 0 0 0 0 0 0
100 84 0 0 0 0 0 0 2 1 0 0 0 2 0 45 100 57 32 5 88 100 100 100 100 100 100 100 99 100 87 52 5 35 100 4 4 0 0 0 0 0 0 0 0
52 69 0 0 0 1 30 0 0 0 0 0 1 5 2 45 100 63 91 51 100 100 100 100 100 100 100 100 100 97 100 2 5 7 24 4 100 4 0 0 0 4 0 0 0
100 65 0 0 6 17 0 4 4 4 0 0 18 5 1 92 99 100 78 100 100 100 100 100 100 100 100 100 100 77 50 47 56 28 5 8 0 1 0 0 0 4 5 0 1
100 100 0 0 10 0 2 4 5 0 2 3 5 37 5 100 100 100 100 100 100 100 100 100 100 100 100 100 100 100 9 6 89 97 98 65 96 100 2 0 0 1 0 4 49
100 100 49 47 43 0 0 0 5 0 2 3 8 45 13 100 100 100 74 100 100 100 100 100 100 100 100 100 100 80 5 20 90 54 36 2 2 5 2 0 0 4 0 0 0
100 100 27 0 0 1 66 25 0 2 5 5 5 5 71 100 100 100 100 91 91 70 52 90 100 100 100 100 83 96 62 99 98 100 82 5 3 97 8 0 2 0 4 0 0
100 100 81 0 0 1 0 2 5 5 12 42 5 5 88 100 100 100 100 100 81 96 7 3 4 12 55 10 87 99 100 77 16 76 89 96 3 32 15 0 2 0 4 0 0
100 96 0 0 0 80 6 24 98 13 46 70 38 99 96 100 100 99 100 100 100 65 42 84 82 59 90 100 100 72 59 93 73 99 75 90 50 61 3 3 78 82 5 1 5
80 1 0 0 0 5 43 100 48 5 66 40 46 99 96 100 100 100 100 100 84 89 99 100 86 100 100 92 51 28 17 65 61 100 28 100 100 9 47 4 0 3 0 0 53
25 1 0 0 0 5 69 48 19 43 99 100 67 96 93 100 100 100 100 100 100 100 100 100 98 100 97 63 61 8 0 3 38 80 60 2 19 6 3 3 5 2 0 0 0
28 4 0 0 0 58 79 89 63 100 100 92 58 39 100 100 75 100 100 100 100 100 100 100 100 100 100 91 100 98 16 1 1 3 86 12 53 2 87 100 95 5 0 0 0
58 0 0 0 1 98 88 5 100 100 100 100 100 100 28 60 100 100 99 100 100 100 100 100 100 100 100 93 15 76 2 0 0 0 1 6 7 5 7 96 61 41 4 1 0
68 0 0 0 1 100 77 91 100 100 90 81 66 63 100 100 100 94 100 100 100 100 94 100 100 100 100 100 84 80 82 0 0 1 0 47 100 4 97 9 78 2 0 0 0
95 2 3 0 19 92 99 97 69 100 100 88 90 26 24 100 100 100 100 100 100 100 100 100 100 100 100 75 39 29 6 9 3 0 0 2 36 33 30 98 6 3 0 0 0
98 5 4 1 23 99 100 100 98 85 100 88 40 52 100 100 98 100 100 100 100 100 91 89 96 80 95 7 5 5 0 2 5 5 8 9 0 0 0 0 0 0 0 0 0
13 5 0 0 4 82 76 100 100 83 100 96 100 5 94 35 97 100 100 79 100 100 82 100 100 4 5 4 0 0 0 5 0 0 6 0 0 0 0 0 0 0 0 3 0
13 100 35 4 4 9 94 100 100 98 37 100 100 100 98 2 6 100 22 86 97 100 98 3 2 14 100 99 54 0 5 5 5 0 0 0 0 0 0 0 0 0 0 0 0

GFSSW_prec_cloud_375.txt.gz
Cloud_Cover
100 96 80 100 100 100 100 100 100 100 47 24 0 0 0 5 12 45 5 61 67 100 100 82 100 100 100 100 78 20 47 19 48 8 60 0 4 0 0 0 0 0 0 0 1
91 50 100 100 96 100 100 100 100 100 50 20 0 0 0 4 31 22 5 67 100 100 100 100 100 93 100 100 100 98 5 3 48 92 65 1 0 0 0 2 26 0 0 0 0
100 83 89 100 100 100 100 100 100 67 39 4 0 0 0 9 5 5 5 88 100 100 100 100 100 100 100 100 100 96 12 5 11 22 55 9 2 0 0 0 66 55 0 0 0
100 100 100 100 100 100 100 85 100 67 24 10 0 0 0 5 4 5 5 88 100 100 52 87 100 100 100 100 100 100 18 10 13 24 51 7 2 4 0 0 0 0 0 0 0
100 100 100 100 100 100 77 41 43 27 9 0 0 0 0 3 0 5 5 100 100 100 66 100 100 100 100 100 100 98 72 54 99 100 98 41 5 5 29 0 0 0 0 0 0
100 100 100 100 71 30 41 34 26 24 2 0 0 0 5 2 1 5 4 71 100 100 100 100 100 100 100 100 100 100 88 24 60 54 16 21 0 1 0 0 0 0 0 0 0
100 100 100 100 70 22 28 12 0 5 0 0 0 3 5 0 0 0 0 74 100 100 100 100 100 100 100 100 100 100 100 16 21 7 10 3 0 0 0 0 0 0 0 0 0
100 100 100 100 74 20 4 0 0 0 0 0 0 4 5 3 0 5 5 5 96 95 100 100 100 100 100 100 100 100 100 100 8 9 55 0 0 1 0 0 0 0 0 0 0
100 100 100 100 41 0 0 0 0 0 0 0 3 5 5 2 4 5 5 5 5 41 100 100 100 100 100 100 100 98 100 70 5 48 6 1 0 51 2 0 0 0 0 0 0
100 100 100 100 16 0 3 0 0 0 0 0 0 2 3 4 3 65 5 5 21 88 71 100 100 100 100 100 100 100 41 57 100 45 0 5 2 0 0 0 0 0 0 0 0
100 100 100 100 14 0 14 0 0 0 0 0 0 0 0 0 0 5 55 23 33 100 39 100 100 96 100 100 100 99 65 100 69 5 0 4 92 0 1 0 0 0 0 0 0
100 100 100 100 56 50 36 0 0 0 0 0 1 5 4 5 62 100 36 95 68 16 42 27 87 85 100 100 93 72 93 13 6 5 5 2 94 0 4 0 0 0 0 0 0
100 100 100 100 62 6 0 0 0 0 0 0 4 5 30 27 57 94 45 5 31 52 92 100 100 96 100 100 100 100 59 5 5 42 98 0 5 0 0 0 0 0 0 0 0
100 100 100 96 14 0 0 0 0 0 0 3 5 61 5 3 52 99 98 5 5 55 74 100 96 100 100 100 100 100 90 100 100 100 32 80 35 5 3 0 0 0 0 0 0
100 100 100 100 83 0 0 0 0 4 2 2 5 82 9 21 93 81 27 54 15 48 91 100 100 100 90 88 96 100 100 100 100 54 93 67 100 6 5 2 0 0 0 0 0
100 100 99 2 74 0 0 2 5 2 2 5 12 95 80 5 77 99 65 94 98 100 100 100 100 100 100 100 100 97 100 95 100 100 5 17 100 85 20 13 0 0 0 0 0
100 100 84 10 0 0 0 5 5 5 5 5 10 68 14 9 93 96 87 100 100 100 100 98 92 100 100 98 56 95 93 100 90 36 5 9 25 5 9 25 5 0 0 0 0
100 100 10 7 0 0 2 5 5 9 26 5 5 5 85 98 97 98 100 100 100 99 93 100 100 100 100 98 22 5 5 5 5 3 3 24 99 14 0 5 5 0 0 0 0
98 9 19 5 0 0 4 5 36 5 38 5 5 58 95 94 94 100 100 100 100 100 100 100 100 100 100 100 56 55 24 4 5 13 100 97 37 5 0 6 0 0 0 0 0
5 0 0 5 0 0 5 5 79 54 87 54 24 13 7 73 47 100 77 100 93 94 100 100 56 37 61 16 41 75 5 19 99 76 79 5 9 13 5 24 2 0 0 0 5
4 0 0 6 0 0 5 5 73 9 93 100 14 79 73 38 98 100 100 100 99 100 100 100 97 57 50 88 15 18 75 95 15 10 76 88 13 2 0 0 0 5 5 5 5
5 0 0 100 1 2 55 5 5 5 100 77 97 84 38 48 85 100 100 100 100 100 91 76 91 95 97 44 16 15 92 64 2 30 5 7 5 0 0 3 5 5 5 5 2
5 1 6 16 0 84 59 56 5 94 97 100 99 61 95 11 59 100 100 100 100 100 100 89 69 99 100 100 100 40 65 7 20 8 5 7 7 5 5 0 5 5 5 5 1
25 1 32 98 0 5 14 68 94 94 98 100 100 100 79 54 75 100 100 100 100 100 100 100 79 100 97 98 100 100 100 100 100 80 5 77 92 5 2 3 5 5 4 5 0
30 0 86 74 0 89 98 56 96 100 86 100 100 49 96 99 75 70 100 100 100 100 100 100 100 100 100 100 100 100 100 100 100 100 100 100 69 5 2 0 0 0 5 5 15
65 2 100 16 0 18 50 100 97 93 100 100 100 100 100 97 86 65 45 100 100 100 100 100 100 100 100 100 100 99 100 100 100 86 100 92 5 5 4 0 4 32 97 53 5
72 4 57 6 0 4 82 54 96 100 100 100 100 100 100 99 34 58 75 33 99 90 100 100 100 93 100 100 100 100 100 89 100 100 100 98 9 5 5 28 18 26 44 54 93

GFSSW_prec_cloud_378.txt.gz
Cloud_Cover
100 100 100 100 86 100 100 100 100 100 100 24 19 0 1 5 23 5 7 14 100 100 100 99 100 100 100 100 53 5 3 5 4 2 26 5 2 14 0 0 0 0 0 0 0
100 100 100 100 100 100 100 100 100 100 51 26 25 0 0 8 9 5 5 46 100 16 98 68 100 10 100 92 100 5 3 5 5 5 0 5 4 13 1 0 0 0 0 0 0
100 100 100 100 100 100 100 100 50 75 24 24 17 0 0 5 6 5 5 98 98 93 100 100 100 100 100 100 78 5 2 2 0 1 0 2 5 24 0 0 0 0 0 0 0
100 100 100 100 100 100 100 100 41 26 23 3 2 0 0 5 5 5 5 100 100 100 97 100 100 97 100 100 100 12 2 5 5 5 5 5 5 16 3 17 0 0 0 0 0
100 100 100 100 100 100 97 62 26 26 12 0 0 0 0 3 4 4 5 100 100 24 100 99 56 39 100 100 100 100 59 85 15 6 3 1 11 8 42 2 0 0 0 0 0
100 100 100 100 100 100 99 46 28 7 0 0 0 0 0 0 0 0 5 78 100 47 100 5 92 95 100 69 97 100 94 24 78 5 2 25 4 1 0 0 0 0 0 0 0
100 100 100 100 100 100 65 28 23 2 0 0 0 0 0 0 0 0 0 95 100 100 100 100 48 100 100 88 97 100 100 5 5 74 3 0 2 5 0 0 0 0 0 0 0
100 100 100 100 100 100 34 18 11 0 0 0 0 0 0 0 0 0 1 97 100 100 100 100 83 99 27 100 99 100 100 100 33 5 5 2 3 1 0 0 0 0 0 0 0
100 100 100 100 100 100 16 15 0 0 0 0 0 0 0 0 2 5 2 10 100 100 100 100 100 100 98 100 35 100 100 100 100 15 29 44 4 0 0 0 0 0 0 0 0
100 100 100 100 100 100 47 0 0 0 0 0 0 0 0 0 3 5 6 39 100 100 100 100 100 100 100 100 13 100 100 100 100 86 52 78 52 36 0 0 0 0 0 0 0
100 100 100 100 100 100 22 0 0 0 0 0 0 0 0 0 0 4 5 5 87 82 92 100 100 100 100 98 100 100 100 100 100 91 36 24 6 5 0 0 0 0 0 0 0
100 100 100 100 100 100 46 0 0 0 0 0 0 0 0 3 5 5 5 9 73 39 63 100 100 98 99 96 100 99 100 100 100 90 87 9 5 5 0 0 0 2 0 0 0
100 100 100 100 100 10 0 0 0 0 0 0 0 0 0 46 20 5 5 5 57 96 93 84 42 54 72 99 100 100 100 100 81 63 17 16 3 5 3 0 0 0 5 0 0
100 100 100 100 12 0 0 0 0 0 0 0 0 0 43 97 70 49 5 20 28 76 98 100 97 99 100 94 39 94 100 64 5 6 5 17 11 5 2 0 0 0 12 1 0
100 100 100 98 72 0 0 0 0 2 0 2 0 17 8 100 59 95 6 5 5 100 29 100 100 100 100 72 42 96 100 59 5 5 5 19 87 5 0 0 0 0 0 2 0
100 100 99 5 79 2 0 0 0 2 1 0 0 51 33 98 100 19 53 14 7 5 43 63 72 99 100 20 21 99 100 30 82 64 92 18 5 2 5 0 0 0 0 5 0
100 100 69 18 0 0 0 0 2 55 0 0 2 65 76 21 91 38 100 99 48 7 45 96 98 100 94 40 100 98 100 100 100 100 80 94 67 56 8 4 5 0 4 40 9
100 98 10 5 0 0 0 0 52 17 42 2 37 7 5 5 98 32 42 100 86 99 89 98 81 100 24 53 100 100 100 100 100 100 100 100 100 86 95 100 10 2 5 5 5
96 12 26 1 0 0 0 0 5 99 44 34 92 60 25 94 99 14 73 94 99 100 74 99 85 73 100 100 100 100 100 100 100 97 98 97 100 100 50 48 80 97 20 7 5
6 0 5 0 0 0 0 4 5 100 7 10 5 61 20 81 12 76 92 100 72 100 72 97 100 100 100 100 100 100 100 100 93 100 100 100 100 84 98 88 43 71 96 84 9
3 3 2 0 0 0 0 25 12 100 60 100 6 29 100 100 100 99 100 100 100 100 100 100 100 100 100 100 100 100 28 26 87 100 100 80 98 28 96 23 8 97 89 95 100
0 3 2 0 0 3 0 65 100 100 100 100 96 36 98 89 99 100 100 100 100 100 100 100 89 99 91 82 28 52 28 42 62 73 100 61 41 5 50 6 5 53 18 5 5
1 5 0 0 12 4 1 99 44 100 100 100 100 32 90 22 87 59 97 100 100 100 100 99 100 100 93 6 9 33 27 80 23 99 98 7 5 5 5 5 5 13 23 60 5
1 4 4 0 48 4 4 73 42 100 100 100 100 100 100 81 48 100 79 93 59 100 100 100 100 100 99 100 100 100 100 96 100 84 79 10 5 5 5 5 5 5 5 5 2
4 85 48 4 5 5 1 100 9 100 53 100 100 99 75 89 100 98 91 94 91 100 100 100 100 100 100 100 100 100 100 100 100 79 10 5 9 5 5 5 5 22 53 4 5
99 100 31 1 5 0 0 100 64 5 100 100 100 100 100 98 30 39 30 100 100 100 100 100 100 100 100 100 100 100 100 100 100 100 100 100 7 0 5 20 8 5 5 5 5
100 99 5 0 5 4 36 100 74 49 100 100 100 100 100 100 78 85 21 100 100 100 100 100 100 100 100 100 100 100 100 88 100 100 98 90 22 53 91 57 59 10 5 5 5